This is the latest recevied weather packets stored in our database for station/object XQ6AK-15. If no packets are shown the sender has not sent any weather packets the latest 10 day(s).
| Time | Temp. | Humidity | Pressure | Rain* | Wind** | Luminosity | Snow |
|---|---|---|---|---|---|---|---|
| 1788015573 | 10° C | 94% | 1008.3 hPa | 0 mm | - | 167 W/m² | - |
| 1788015262 | 10° C | 95% | 1007.9 hPa | 0 mm | - | 147 W/m² | - |
| 1788014960 | 10° C | 97% | 1008 hPa | 0 mm | - | 129 W/m² | - |
| 1788014655 | 10° C | 99% | 1007.8 hPa | 0 mm | - | 117 W/m² | - |
| 1788014350 | 10° C | 99% | 1007.6 hPa | 0 mm | - | 124 W/m² | - |
| 1788014046 | 9.44° C | 99% | 1007.8 hPa | 0 mm | - | 137 W/m² | - |
| 1788013745 | 9.44° C | 99% | 1007.7 hPa | 0 mm | - | 150 W/m² | - |
| 1788013445 | 9.44° C | 99% | 1007.7 hPa | 0 mm | - | 163 W/m² | - |
| 1788013144 | 9.44° C | 99% | 1007.8 hPa | 0 mm | - | 179 W/m² | - |
| 1788012843 | 9.44° C | 99% | 1007.8 hPa | 0 mm | - | 240 W/m² | - |
| 1788012537 | 8.89° C | 99% | 1007.7 hPa | 0 mm | - | 162 W/m² | - |
| 1788012233 | 9.44° C | 99% | 1008 hPa | 0 mm | - | 148 W/m² | - |
| 1788011932 | 9.44° C | 99% | 1007.9 hPa | 0 mm | - | 188 W/m² | - |
| 1788011630 | 9.44° C | 99% | 1007.8 hPa | 0 mm | - | 195 W/m² | - |
| 1788011326 | 9.44° C | 99% | 1007.7 hPa | 0 mm | - | 396 W/m² | - |
| 1788011025 | 9.44° C | 99% | 1007.7 hPa | 0 mm | - | 282 W/m² | - |
| 1788010722 | 9.44° C | 99% | 1007.6 hPa | 0 mm | - | 193 W/m² | - |
| 1788010419 | 9.44° C | 99% | 1007.6 hPa | 0 mm | - | 197 W/m² | - |
| 1788010114 | 9.44° C | 99% | 1007.3 hPa | 0 mm | - | 359 W/m² | - |
| 1788009809 | 8.89° C | 99% | 1007.5 hPa | 0 mm | - | 368 W/m² | - |
| 1788009507 | 8.89° C | 99% | 1007.3 hPa | 0 mm | - | 286 W/m² | - |
| 1788009202 | 8.33° C | 99% | 1007.3 hPa | 0 mm | - | 132 W/m² | - |
| 1788008896 | 7.78° C | 99% | 1007.4 hPa | 0 mm | - | 111 W/m² | - |
| 1788008592 | 7.78° C | 99% | 1007.5 hPa | 0 mm | - | 49 W/m² | - |
| 1788008290 | 7.78° C | 99% | 1007.3 hPa | 0 mm | - | 56 W/m² | - |
* Rain latest hour (hover to see other rain measurements)
** Current wind speed in m/s (hover to see current wind gust speed)